World > North America > United States > Texas

Duncanville, Texas Regional Weather

Lat: 32.65N, Lon: 96.91W
Wx Zone: TXZ119Web Search

Ads allow us to feed your daily addiction for the world's greatest weather information. We're determined to offer quality sponsors, in the least annoying way possible.

Feedback


°F Click to change Duncanville hourly weather to Imperial units.Click to change Duncanville hourly weather to Metric units. °C
Duncanville Weather Map
UTC Time: 4/11/2021, 04:54
Your Time:

Duncanville, TX Regional Weather

Expires:202104110500;;364880
ASUS44 KFWD 110415
RWRTX 
NORTH TEXAS HOURLY WEATHER ROUNDUP
NATIONAL WEATHER SERVICE FORT WORTH TX
1100 PM CDT SAT APR 10 2021

NOTE: "FAIR" INDICATES FEW OR NO CLOUDS BELOW 12,000 FEET WITH NO
SIGNIFICANT WEATHER AND/OR OBSTRUCTIONS TO VISIBILITY.


TXZ118-119-110500-
DALLAS/FORT WORTH METROPLEX
  
CITY           SKY/WX    TMP DP  RH WIND       PRES   REMARKS
DFW AIRPORT    FAIR      62  33  33 W7        29.82R                  
DALLAS LOVE    FAIR      59  39  47 CALM      29.82S                  
FTW MEACHAM    FAIR      58  36  43 NW3       29.83R                  
DAL-EXECUTIVE  FAIR      61  35  37 NW5       29.82S                  
FTW-ALLIANCE   FAIR      57  35  43 W6        29.83R                  
FTW-NAS-JRB    FAIR      60  40  47 CALM      29.84R                  
FTW-SPINKS     FAIR      48  41  76 CALM      29.86R                  
ARLINGTON      FAIR      52  42  69 CALM      29.83S                  
GRAND PRAIRIE  FAIR      64  33  30 CALM      29.85R                  
ADDISON        FAIR      59  33  36 CALM      29.85R                  
MESQUITE       FAIR      54  38  54 CALM      29.83S                  
LANCASTER      FAIR      51  42  71 CALM      29.84S                  
$$


SKY/WX - Weather  TMP - Temperature  DP - Dew Point  RH - Relative Humidity
WIND - Wind Direction/Speed PRES - Barometric Pressure VSB - Visibility
WCI - Wind Chill Index E13G22 Wind - East Wind 13 mph/Gusts of 22 mph